{"data":{"norad_id":64910,"epoch":"2026-09-20T05:23:15.653472Z","epoch_age_seconds":148097,"freshness":"FRESH","line1":"1 64910U 25157G   26263.22448673  .00012722  00000+0  42071-3 0  9995","line2":"2 64910  53.1578 160.2537 0001357  90.7444 269.3713 15.31722546 65939","mean_motion":15.31722546,"eccentricity":0.0001357,"inclination_deg":53.1578,"raan_deg":160.2537,"arg_perigee_deg":90.7444,"mean_anomaly_deg":269.3713,"bstar":0.00042071,"rev_number":6593,"period_min":94.011804145631,"perigee_km":469.74340410906,"apogee_km":471.60217108541,"semimajor_km":6848.8097875972,"source":"CELESTRAK","updated_at":"2026-09-21T09:00:35.454896Z"}}